TimeCST,TemperatureF,Dew PointF,Humidity,Sea Level PressureIn,VisibilityMPH,Wind Direction,Wind SpeedMPH,Gust SpeedMPH,PrecipitationIn,Events,Conditions,WindDirDegrees,DateUTC
12:15 AM,14.0,5.0,67,30.32,10.0,NNW,9.2,-,N/A,,Clear,340,2013-11-27 06:15:00
12:35 AM,14.0,5.0,67,30.33,10.0,NNW,9.2,-,N/A,,Clear,330,2013-11-27 06:35:00
12:55 AM,14.0,5.0,67,30.32,10.0,NNW,9.2,-,N/A,,Clear,330,2013-11-27 06:55:00
1:15 AM,12.2,5.0,73,30.33,10.0,NNW,10.4,-,N/A,,Clear,330,2013-11-27 07:15:00
1:35 AM,12.2,5.0,73,30.33,10.0,NW,3.5,-,N/A,,Clear,320,2013-11-27 07:35:00
1:55 AM,12.2,5.0,73,30.34,10.0,NW,8.1,-,N/A,,Clear,320,2013-11-27 07:55:00
2:15 AM,12.2,5.0,73,30.34,10.0,NNW,9.2,-,N/A,,Clear,330,2013-11-27 08:15:00
2:35 AM,12.2,5.0,73,30.33,10.0,NW,9.2,-,N/A,,Clear,320,2013-11-27 08:35:00
2:55 AM,12.2,5.0,73,30.33,10.0,NNW,8.1,-,N/A,,Clear,330,2013-11-27 08:55:00
3:15 AM,12.2,5.0,73,30.33,10.0,NNW,8.1,-,N/A,,Clear,330,2013-11-27 09:15:00
3:35 AM,12.2,5.0,73,30.33,10.0,NW,6.9,-,N/A,,Clear,320,2013-11-27 09:35:00
3:55 AM,12.2,5.0,73,30.33,10.0,NNW,9.2,-,N/A,,Clear,330,2013-11-27 09:55:00
4:15 AM,10.4,5.0,79,30.33,10.0,NNW,8.1,-,N/A,,Clear,330,2013-11-27 10:15:00
4:35 AM,10.4,5.0,79,30.33,10.0,NNW,8.1,-,N/A,,Clear,340,2013-11-27 10:35:00
4:55 AM,10.4,5.0,79,30.33,10.0,NNW,6.9,-,N/A,,Clear,340,2013-11-27 10:55:00
5:15 AM,10.4,5.0,79,30.33,10.0,NNW,5.8,-,N/A,,Clear,340,2013-11-27 11:15:00
5:35 AM,8.6,5.0,85,30.33,10.0,North,5.8,-,N/A,,Clear,350,2013-11-27 11:35:00
5:55 AM,8.6,3.2,79,30.33,10.0,NNW,5.8,-,N/A,,Clear,340,2013-11-27 11:55:00
6:15 AM,8.6,3.2,79,30.34,10.0,NNW,5.8,-,N/A,,Clear,340,2013-11-27 12:15:00
6:35 AM,8.6,3.2,79,30.34,10.0,NNW,3.5,-,N/A,,Clear,340,2013-11-27 12:35:00
6:55 AM,8.6,3.2,79,30.34,10.0,Calm,Calm,-,N/A,,Clear,0,2013-11-27 12:55:00
7:15 AM,6.8,3.2,85,30.33,10.0,WNW,3.5,-,N/A,,Clear,300,2013-11-27 13:15:00
7:35 AM,5.0,1.4,85,30.33,10.0,Calm,Calm,-,N/A,,Clear,0,2013-11-27 13:35:00
7:55 AM,8.6,3.2,79,30.32,10.0,Calm,Calm,-,N/A,,Clear,0,2013-11-27 13:55:00
8:15 AM,8.6,5.0,85,30.33,10.0,Calm,Calm,-,N/A,,Clear,0,2013-11-27 14:15:00
8:35 AM,10.4,5.0,79,30.33,10.0,Calm,Calm,-,N/A,,Clear,0,2013-11-27 14:35:00
8:55 AM,12.2,6.8,79,30.34,10.0,Calm,Calm,-,N/A,,Clear,0,2013-11-27 14:55:00
9:15 AM,12.2,6.8,79,30.33,10.0,Calm,Calm,-,N/A,,Clear,0,2013-11-27 15:15:00
9:35 AM,14.0,8.6,79,30.33,10.0,Calm,Calm,-,N/A,,Clear,0,2013-11-27 15:35:00
9:55 AM,15.8,8.6,73,30.33,10.0,South,3.5,-,N/A,,Clear,170,2013-11-27 15:55:00
10:15 AM,17.6,8.6,68,30.32,10.0,Calm,Calm,-,N/A,,Clear,0,2013-11-27 16:15:00
10:35 AM,17.6,8.6,68,30.31,10.0,Calm,Calm,-,N/A,,Clear,0,2013-11-27 16:35:00
10:55 AM,19.4,8.6,63,30.31,10.0,Calm,Calm,-,N/A,,Clear,0,2013-11-27 16:55:00
11:15 AM,21.2,8.6,58,30.29,10.0,SSE,3.5,-,N/A,,Clear,160,2013-11-27 17:15:00
11:35 AM,21.2,8.6,58,30.28,10.0,South,3.5,-,N/A,,Clear,190,2013-11-27 17:35:00
11:55 AM,21.2,6.8,54,30.25,10.0,SSE,4.6,-,N/A,,Clear,150,2013-11-27 17:55:00
12:15 PM,23.0,6.8,50,30.25,10.0,South,5.8,-,N/A,,Clear,180,2013-11-27 18:15:00
12:35 PM,24.8,6.8,46,30.22,10.0,SSE,9.2,-,N/A,,Clear,160,2013-11-27 18:35:00
12:55 PM,24.8,5.0,43,30.21,10.0,South,10.4,-,N/A,,Clear,190,2013-11-27 18:55:00
1:15 PM,24.8,5.0,43,30.20,10.0,South,8.1,-,N/A,,Clear,190,2013-11-27 19:15:00
1:35 PM,24.8,5.0,43,30.19,10.0,South,10.4,16.1,N/A,,Clear,180,2013-11-27 19:35:00
1:55 PM,26.6,5.0,40,30.18,10.0,South,11.5,-,N/A,,Clear,190,2013-11-27 19:55:00
2:15 PM,26.6,6.8,43,30.17,10.0,South,10.4,-,N/A,,Clear,180,2013-11-27 20:15:00
2:35 PM,26.6,6.8,43,30.16,10.0,South,11.5,-,N/A,,Clear,170,2013-11-27 20:35:00
2:55 PM,26.6,5.0,40,30.15,10.0,South,11.5,16.1,N/A,,Scattered Clouds,190,2013-11-27 20:55:00
3:15 PM,26.6,5.0,40,30.15,10.0,South,11.5,-,N/A,,Scattered Clouds,190,2013-11-27 21:15:00
3:35 PM,24.8,5.0,43,30.13,10.0,SSE,11.5,-,N/A,,Scattered Clouds,160,2013-11-27 21:35:00
3:55 PM,24.8,5.0,43,30.11,10.0,SSE,12.7,-,N/A,,Clear,160,2013-11-27 21:55:00
4:15 PM,23.0,5.0,46,30.11,10.0,SSE,12.7,-,N/A,,Clear,160,2013-11-27 22:15:00
4:35 PM,23.0,8.6,54,30.10,10.0,South,10.4,-,N/A,,Clear,170,2013-11-27 22:35:00
4:55 PM,23.0,8.6,54,30.09,10.0,South,11.5,-,N/A,,Clear,170,2013-11-27 22:55:00
5:15 PM,23.0,10.4,59,30.09,10.0,South,12.7,-,N/A,,Clear,170,2013-11-27 23:15:00
5:35 PM,21.2,10.4,63,30.06,10.0,SSE,12.7,-,N/A,,Clear,150,2013-11-27 23:35:00
5:55 PM,21.2,10.4,63,30.04,10.0,SSE,15.0,21.9,N/A,,Clear,160,2013-11-27 23:55:00
6:15 PM,21.2,10.4,63,30.05,10.0,SSE,13.8,17.3,N/A,,Clear,160,2013-11-28 00:15:00
6:35 PM,21.2,10.4,63,30.06,10.0,SSE,13.8,17.3,N/A,,Clear,160,2013-11-28 00:35:00
6:55 PM,19.4,10.4,68,30.07,10.0,SSE,9.2,-,N/A,,Clear,150,2013-11-28 00:55:00
7:15 PM,19.4,10.4,68,30.08,10.0,South,9.2,-,N/A,,Clear,170,2013-11-28 01:15:00
7:35 PM,19.4,10.4,68,30.08,10.0,SSE,9.2,-,N/A,,Clear,160,2013-11-28 01:35:00
7:55 PM,19.4,10.4,68,30.08,10.0,SE,8.1,-,N/A,,Clear,140,2013-11-28 01:55:00
8:15 PM,17.6,10.4,73,30.07,10.0,SE,6.9,-,N/A,,Clear,140,2013-11-28 02:15:00
8:35 PM,17.6,10.4,73,30.07,10.0,SE,6.9,-,N/A,,Clear,130,2013-11-28 02:35:00
8:55 PM,17.6,10.4,73,30.06,10.0,SE,8.1,-,N/A,,Clear,140,2013-11-28 02:55:00
9:15 PM,19.4,10.4,68,30.06,10.0,SE,8.1,-,N/A,,Clear,130,2013-11-28 03:15:00
9:35 PM,19.4,10.4,68,30.05,10.0,SE,9.2,-,N/A,,Clear,140,2013-11-28 03:35:00
9:55 PM,19.4,12.2,74,30.05,10.0,SE,10.4,-,N/A,,Clear,140,2013-11-28 03:55:00
10:15 PM,19.4,12.2,74,30.04,10.0,SE,10.4,-,N/A,,Clear,140,2013-11-28 04:15:00
10:35 PM,19.4,12.2,74,30.03,10.0,SE,9.2,-,N/A,,Clear,140,2013-11-28 04:35:00
10:55 PM,19.4,12.2,74,30.03,10.0,SE,9.2,-,N/A,,Clear,140,2013-11-28 04:55:00
11:15 PM,19.4,12.2,74,30.03,10.0,SE,9.2,-,N/A,,Clear,140,2013-11-28 05:15:00
11:35 PM,17.6,12.2,79,30.02,10.0,SE,8.1,-,N/A,,Clear,140,2013-11-28 05:35:00
11:55 PM,17.6,12.2,79,30.02,10.0,SE,6.9,-,N/A,,Clear,130,2013-11-28 05:55:00